Total_Precipitation_Accumulation
3.22 3.44 3.48 3.75 3.72 3.69 3.55 3.29 2.87 2.72 2.58 2.33 2.10 2.07 2.03 1.95 1.99 2.06 2.19 2.24 2.27 2.54 2.97 3.28 3.27 3.18 3.25 3.27 3.35 3.35 3.27 3.18 3.06 2.90 2.78 2.69 2.65 2.74 2.79 2.86 2.71 2.59 2.53
3.73 3.80 3.83 4.06 3.93 3.66 3.63 3.42 3.06 2.89 2.73 2.59 2.26 2.07 2.07 2.29 2.20 2.11 2.23 2.29 2.26 2.34 2.71 3.21 3.52 3.68 3.79 3.84 3.71 3.47 3.40 3.35 3.37 3.24 3.05 2.82 2.74 2.67 2.63 2.77 2.85 2.71 2.65
4.28 4.14 4.27 4.42 4.23 3.93 3.89 3.77 3.60 3.25 3.04 2.97 2.76 2.44 2.30 2.39 2.46 2.53 2.53 2.53 2.55 2.53 2.72 3.05 3.38 3.64 3.87 4.09 4.03 3.77 3.58 3.56 3.60 3.58 3.46 3.16 2.98 2.83 2.78 2.71 2.75 2.82 2.66
4.77 4.83 4.65 4.52 4.39 4.16 4.10 4.22 3.96 3.60 3.48 3.46 3.23 2.84 2.52 2.62 2.72 2.65 2.63 2.67 2.84 2.75 2.81 2.84 3.01 3.30 3.59 3.90 4.09 4.14 4.02 3.96 3.85 3.73 3.66 3.54 3.37 3.18 2.96 2.93 2.83 2.79 2.71
4.87 5.04 5.01 4.90 4.71 4.57 4.48 4.14 4.06 3.90 3.84 3.72 3.25 3.00 2.67 2.56 2.66 2.60 2.64 2.69 2.90 2.99 2.99 2.76 2.90 3.27 3.51 3.78 4.10 4.37 4.48 4.42 4.21 4.09 4.01 3.93 3.78 3.52 3.25 3.07 2.99 2.97 2.92
5.25 5.29 5.16 5.07 5.00 4.96 4.81 4.57 4.45 4.33 4.02 3.85 3.37 3.10 2.83 2.58 2.53 2.51 2.48 2.56 2.61 2.65 2.74 2.77 2.84 2.84 3.14 3.50 3.89 4.28 4.63 4.89 4.65 4.32 4.17 4.19 4.11 3.81 3.61 3.42 3.27 3.21 3.20
5.71 5.64 5.51 5.38 5.18 5.02 4.89 4.75 4.56 4.39 4.02 3.87 3.70 3.37 2.90 2.52 2.48 2.43 2.32 2.40 2.40 2.36 2.47 2.58 2.79 2.78 2.73 3.08 3.32 3.72 4.16 4.72 4.94 4.77 4.53 4.41 4.32 4.10 3.83 3.58 3.49 3.46 3.38
6.33 6.10 6.11 5.81 5.46 5.24 4.93 4.67 4.47 4.18 3.80 3.76 3.77 3.86 3.39 2.95 2.35 2.00 2.03 2.06 2.04 2.06 2.17 2.30 2.46 2.57 2.53 2.70 2.81 3.07 3.39 3.76 4.26 4.57 4.60 4.50 4.34 4.15 3.98 3.80 3.61 3.58 3.63
6.37 6.03 5.84 5.75 5.47 4.95 4.67 4.48 4.24 4.06 3.84 3.69 3.58 3.82 3.59 3.19 2.65 2.25 1.98 1.83 1.86 1.98 2.05 2.18 2.23 2.25 2.24 2.30 2.34 2.52 2.72 2.88 3.38 3.94 4.26 4.25 4.16 4.00 3.91 3.91 3.87 3.74 3.67
5.97 5.64 5.43 5.16 4.90 4.57 4.35 4.01 3.91 3.92 3.88 3.65 3.52 3.28 3.03 2.87 2.89 2.63 2.27 2.03 1.95 1.96 1.92 1.88 1.92 2.03 2.10 2.13 2.20 2.21 2.29 2.41 2.74 3.14 3.57 3.75 3.73 3.67 3.62 3.61 3.62 3.62 3.70
5.37 4.94 4.69 4.43 4.15 3.92 3.70 3.42 3.39 3.46 3.52 3.43 3.37 3.27 3.12 2.99 2.80 2.66 2.52 2.43 2.29 2.10 1.97 1.89 1.86 1.87 1.88 1.93 1.99 2.03 2.17 2.14 2.23 2.42 2.72 2.98 3.13 3.26 3.35 3.41 3.42 3.51 3.65
4.67 4.35 4.04 3.77 3.43 3.22 3.03 2.92 2.83 2.81 2.91 2.94 2.99 2.98 2.99 3.06 2.98 2.93 2.72 2.55 2.48 2.28 2.11 1.98 1.90 1.86 1.79 1.87 1.95 2.17 2.07 2.09 2.16 2.15 2.24 2.39 2.51 2.73 2.94 3.17 3.33 3.51 3.72
3.64 3.42 3.19 3.01 2.76 2.65 2.59 2.59 2.55 2.52 2.55 2.57 2.64 2.71 2.73 2.76 2.78 2.94 3.07 2.84 2.56 2.27 2.16 2.01 1.87 1.85 1.82 1.90 1.92 2.00 1.85 1.79 1.83 1.83 1.95 2.10 2.18 2.34 2.49 2.63 2.81 3.00 3.20
2.62 2.54 2.52 2.33 2.25 2.22 2.16 2.24 2.24 2.26 2.32 2.29 2.25 2.43 2.53 2.46 2.44 2.55 2.80 2.88 2.74 2.45 2.16 1.98 1.80 1.76 1.78 1.79 1.90 1.88 1.65 1.73 1.67 1.63 1.62 1.72 1.82 1.94 2.08 2.19 2.36 2.51 2.57
2.25 2.14 2.11 2.08 2.08 2.10 2.03 2.04 2.02 1.93 2.03 2.08 2.04 2.15 2.26 2.19 2.13 2.14 2.29 2.48 2.68 2.63 2.20 1.83 1.75 1.69 1.68 1.70 1.83 1.54 1.51 1.64 1.59 1.52 1.47 1.48 1.59 1.67 1.73 1.75 1.82 1.94 2.10
2.15 2.07 1.97 1.92 1.90 1.84 1.80 1.89 1.87 1.81 1.83 1.83 1.83 1.92 1.97 1.93 1.97 1.93 1.95 2.05 2.26 2.45 2.27 1.73 1.58 1.57 1.67 1.54 1.61 1.39 1.43 1.48 1.38 1.33 1.26 1.22 1.22 1.36 1.43 1.38 1.41 1.50 1.67
1.86 1.82 1.66 1.62 1.58 1.53 1.54 1.65 1.66 1.67 1.68 1.66 1.59 1.58 1.64 1.71 1.83 1.75 1.76 1.83 1.97 2.16 2.22 1.81 1.61 1.59 1.69 1.70 1.66 1.55 1.41 1.30 1.24 1.28 1.17 1.11 1.09 1.14 1.23 1.23 1.22 1.24 1.39
1.61 1.59 1.51 1.39 1.31 1.35 1.48 1.51 1.44 1.43 1.50 1.49 1.46 1.47 1.46 1.55 1.68 1.69 1.71 1.69 1.80 1.96 2.05 1.95 1.74 1.63 1.62 1.63 1.64 1.62 1.37 1.17 1.15 1.26 1.18 1.09 1.09 1.08 1.14 1.18 1.17 1.13 1.10
1.43 1.40 1.39 1.38 1.36 1.30 1.34 1.35 1.33 1.35 1.39 1.43 1.43 1.40 1.36 1.47 1.53 1.54 1.56 1.56 1.61 1.66 1.80 1.75 1.55 1.50 1.47 1.49 1.64 1.61 1.51 1.47 1.12 1.07 1.09 1.03 1.05 1.04 1.03 1.07 1.09 1.07 1.00
1.32 1.23 1.22 1.28 1.29 1.25 1.22 1.22 1.24 1.34 1.45 1.38 1.30 1.30 1.33 1.32 1.32 1.40 1.41 1.51 1.61 1.73 1.77 1.71 1.53 1.40 1.44 1.48 1.72 1.77 1.69 1.53 1.30 1.00 1.03 1.01 1.02 0.99 0.97 1.01 0.97 1.00 1.02
1.30 1.28 1.23 1.22 1.19 1.17 1.10 1.13 1.16 1.20 1.36 1.37 1.31 1.26 1.20 1.20 1.19 1.22 1.18 1.30 1.49 1.67 1.71 1.74 1.64 1.52 1.51 1.68 1.70 1.60 1.58 1.48 1.31 1.09 1.11 1.04 1.08 1.23 1.43 1.49 1.26 1.03 1.02
1.26 1.30 1.29 1.23 1.13 1.00 1.08 1.11 1.07 1.14 1.25 1.31 1.31 1.24 1.13 1.06 1.00 1.01 0.98 1.04 1.24 1.46 1.63 1.78 1.71 1.63 1.56 1.68 1.79 1.70 1.73 1.75 1.59 1.25 1.29 1.22 1.22 1.59 1.95 2.14 1.74 1.19 1.04
1.22 1.28 1.30 1.31 1.20 1.09 1.14 1.09 1.09 1.10 1.19 1.30 1.32 1.29 1.07 0.91 1.02 0.99 1.00 0.99 1.02 1.12 1.38 1.70 1.82 1.68 1.63 1.75 1.93 1.90 1.90 1.89 1.77 1.47 1.56 1.51 1.46 1.73 1.75 1.85 1.80 1.35 1.22
1.23 1.31 1.35 1.32 1.24 1.13 1.12 1.07 1.07 1.06 1.08 1.16 1.20 1.21 1.29 1.27 1.14 1.10 1.03 1.04 1.08 1.13 1.20 1.29 1.53 1.57 1.47 1.56 1.77 1.82 1.86 1.81 1.71 1.63 1.71 1.77 1.60 1.69 1.56 1.87 2.06 1.87 1.63
1.26 1.30 1.29 1.32 1.29 1.21 1.11 1.04 1.09 1.03 0.99 0.99 0.99 1.05 1.15 1.21 1.16 1.07 1.06 1.15 1.21 1.22 1.09 1.18 1.25 1.38 1.46 1.42 1.45 1.59 1.83 1.99 1.93 1.69 1.64 1.74 1.69 1.75 1.85 2.12 2.12 2.09 1.95
1.26 1.24 1.26 1.30 1.29 1.24 1.05 0.90 0.96 0.92 0.96 0.96 1.02 1.06 1.04 0.99 1.04 1.00 1.02 1.22 1.30 1.26 1.34 1.49 1.62 1.71 1.65 1.57 1.44 1.52 1.84 2.07 2.06 1.94 1.66 1.81 1.95 2.13 2.39 2.41 2.27 2.07 2.02